カタログに戻る

ARIANE 2 DEB

運用中GTO
NORAD 33560·DEBRIS·🇫🇷 France

打ち上げ Jan 27, 1989 から Guiana Space Centre

Loading…

TLE

経年Source: Space-Track

元期: Sep 14, 2026, 13:14 UTC

1 33560U 89006BC  26257.55192478  .00000151  00000-0  12866-1 0  9994
2 33560  10.9550 353.7257 7088801 194.6934 278.6510  2.25272845182871

AllMySatでARIANE 2 DEBをリアルタイム追跡

Download on the App Store